• In Netherlands
  • List of Countries
  • For 7 days
  • Water Temperature
  • Satellite Maps
  • Weather Map
  • Weather Widgets
  • user-avatar
    Login

    Hourly Weather Batina

    Today, 30 May, Tuesday

    Time Temperature Precipitation Wind Pressure Humidity
    00:00 +19°C° 0 mm 2 mps 671 mmHg 60%
    01:00 +18°C° 0.1 mm 2 mps 671 mmHg 62%
    02:00 +19°C° 0.1 mm 1 mps 671 mmHg 63%
    03:00 +18°C° 0.1 mm 1 mps 670 mmHg 64%
    04:00 +19°C° 0.1 mm 1 mps 671 mmHg 62%
    05:00 +19°C° 0.1 mm 1 mps 671 mmHg 60%
    06:00 +19°C° 0.1 mm 1 mps 671 mmHg 58%
    07:00 +21°C° 0.1 mm 1 mps 672 mmHg 53%
    08:00 +21°C° 0.1 mm 2 mps 673 mmHg 48%
    09:00 +24°C° 0.1 mm 2 mps 673 mmHg 43%
    10:00 +24°C° 0.4 mm 2 mps 673 mmHg 43%
    11:00 +24°C° 0.4 mm 2 mps 673 mmHg 44%
    12:00 +24°C° 0.4 mm 2 mps 673 mmHg 44%
    13:00 +23°C° 1.1 mm 2 mps 673 mmHg 49%
    14:00 +21°C° 1.1 mm 2 mps 673 mmHg 54%
    15:00 +21°C° 1.1 mm 2 mps 672 mmHg 59%
    16:00 +20°C° 0.7 mm 2 mps 672 mmHg 63%
    17:00 +20°C° 0.7 mm 2 mps 672 mmHg 67%
    18:00 +19°C° 0.7 mm 2 mps 672 mmHg 71%
    19:00 +19°C° 0.1 mm 2 mps 672 mmHg 74%
    20:00 +19°C° 0.1 mm 1 mps 672 mmHg 76%
    21:00 +19°C° 0.1 mm 1 mps 672 mmHg 78%
    22:00 +19°C° 0 mm 1 mps 672 mmHg 78%
    23:00 +18°C° 0 mm 1 mps 672 mmHg 78%

    Tomorrow, 31 May, Wednesday

    Time Temperature Precipitation Wind Pressure Humidity
    00:00 +18°C° 0 mm 1 mps 672 mmHg 78%
    01:00 +16°C° 0 mm 1 mps 672 mmHg 78%
    02:00 +15°C° 0 mm 0 mps 671 mmHg 78%
    03:00 +15°C° 0 mm 0 mps 671 mmHg 78%
    04:00 +15°C° 0 mm 0 mps 672 mmHg 74%
    05:00 +16°C° 0 mm 0 mps 672 mmHg 70%
    06:00 +17°C° 0 mm 0 mps 673 mmHg 65%
    07:00 +21°C° 0 mm 1 mps 673 mmHg 57%
    08:00 +23°C° 0 mm 1 mps 674 mmHg 49%
    09:00 +25°C° 0 mm 1 mps 675 mmHg 40%
    10:00 +26°C° 0 mm 1 mps 675 mmHg 37%
    11:00 +27°C° 0 mm 1 mps 675 mmHg 34%
    12:00 +28°C° 0 mm 1 mps 675 mmHg 30%
    13:00 +28°C° 0.1 mm 2 mps 674 mmHg 31%
    14:00 +28°C° 0.1 mm 2 mps 674 mmHg 32%
    15:00 +28°C° 0.1 mm 2 mps 674 mmHg 32%
    16:00 +27°C° 0.4 mm 2 mps 673 mmHg 37%
    17:00 +26°C° 0.4 mm 1 mps 673 mmHg 42%
    18:00 +25°C° 0.4 mm 1 mps 673 mmHg 46%
    19:00 +24°C° 0.1 mm 1 mps 673 mmHg 51%
    20:00 +23°C° 0.1 mm 1 mps 673 mmHg 56%
    21:00 +21°C° 0.1 mm 1 mps 673 mmHg 60%
    22:00 +21°C° 0 mm 1 mps 673 mmHg 63%
    23:00 +20°C° 0 mm 1 mps 673 mmHg 65%

    Day after tomorrow, 1 June, Thursday

    Time Temperature Precipitation Wind Pressure Humidity
    00:00 +18°C° 0 mm 0 mps 673 mmHg 67%
    01:00 +17°C° 0 mm 0 mps 672 mmHg 68%
    02:00 +17°C° 0 mm 0 mps 672 mmHg 69%
    03:00 +16°C° 0 mm 0 mps 672 mmHg 70%
    04:00 +17°C° 0 mm 0 mps 673 mmHg 65%
    05:00 +19°C° 0 mm 0 mps 673 mmHg 60%
    06:00 +20°C° 0 mm 0 mps 674 mmHg 54%
    07:00 +24°C° 0 mm 1 mps 674 mmHg 48%
    08:00 +25°C° 0 mm 1 mps 675 mmHg 41%
    09:00 +27°C° 0 mm 1 mps 675 mmHg 34%
    10:00 +28°C° 0 mm 1 mps 675 mmHg 31%
    11:00 +30°C° 0 mm 1 mps 676 mmHg 28%
    12:00 +31°C° 0 mm 1 mps 676 mmHg 25%
    13:00 +30°C° 0.1 mm 2 mps 675 mmHg 26%
    14:00 +30°C° 0.1 mm 3 mps 675 mmHg 26%
    15:00 +30°C° 0.1 mm 3 mps 675 mmHg 27%
    16:00 +29°C° 0.2 mm 3 mps 674 mmHg 31%
    17:00 +28°C° 0.2 mm 2 mps 674 mmHg 36%
    18:00 +26°C° 0.2 mm 2 mps 674 mmHg 40%
    19:00 +25°C° 0 mm 1 mps 674 mmHg 45%
    20:00 +24°C° 0 mm 1 mps 674 mmHg 49%
    21:00 +22°C° 0 mm 1 mps 674 mmHg 54%
    22:00 +22°C° 0 mm 1 mps 674 mmHg 55%
    23:00 +21°C° 0 mm 1 mps 673 mmHg 57%

    2 June, Friday

    Time Temperature Precipitation Wind Pressure Humidity
    00:00 +21°C° 0 mm 1 mps 673 mmHg 59%
    01:00 +20°C° 0 mm 1 mps 673 mmHg 60%
    02:00 +20°C° 0 mm 1 mps 673 mmHg 62%
    03:00 +19°C° 0 mm 1 mps 672 mmHg 63%
    04:00 +20°C° 0 mm 1 mps 673 mmHg 58%
    05:00 +22°C° 0 mm 1 mps 673 mmHg 53%
    06:00 +23°C° 0 mm 1 mps 674 mmHg 47%
    07:00 +24°C° 0 mm 1 mps 674 mmHg 42%
    08:00 +26°C° 0 mm 1 mps 675 mmHg 36%
    09:00 +28°C° 0 mm 1 mps 676 mmHg 30%
    10:00 +29°C° 0 mm 2 mps 675 mmHg 28%
    11:00 +30°C° 0 mm 2 mps 675 mmHg 26%
    12:00 +31°C° 0 mm 3 mps 675 mmHg 24%
    13:00 +31°C° 0 mm 3 mps 675 mmHg 25%
    14:00 +31°C° 0 mm 3 mps 674 mmHg 26%
    15:00 +30°C° 0 mm 3 mps 674 mmHg 27%
    16:00 +29°C° 0 mm 3 mps 674 mmHg 30%
    17:00 +28°C° 0 mm 3 mps 674 mmHg 33%
    18:00 +27°C° 0 mm 2 mps 673 mmHg 36%
    19:00 +26°C° 0 mm 2 mps 673 mmHg 42%
    20:00 +24°C° 0 mm 1 mps 673 mmHg 47%
    21:00 +23°C° 0 mm 1 mps 673 mmHg 52%
    22:00 +23°C° 0 mm 1 mps 673 mmHg 52%
    23:00 +23°C° 0 mm 1 mps 673 mmHg 53%

    3 June, Saturday

    Time Temperature Precipitation Wind Pressure Humidity
    00:00 +21°C° 0 mm 2 mps 673 mmHg 53%
    01:00 +21°C° 0 mm 2 mps 673 mmHg 52%
    02:00 +22°C° 0 mm 1 mps 672 mmHg 52%
    03:00 +22°C° 0 mm 1 mps 672 mmHg 52%
    04:00 +23°C° 0 mm 1 mps 672 mmHg 49%
    05:00 +23°C° 0 mm 1 mps 672 mmHg 47%
    06:00 +24°C° 0 mm 1 mps 673 mmHg 45%
    07:00 +26°C° 0 mm 2 mps 673 mmHg 40%
    08:00 +28°C° 0 mm 2 mps 674 mmHg 35%
    09:00 +29°C° 0 mm 3 mps 674 mmHg 30%
    10:00 +30°C° 0 mm 3 mps 674 mmHg 28%
    11:00 +31°C° 0 mm 3 mps 674 mmHg 27%
    12:00 +33°C° 0 mm 3 mps 674 mmHg 25%
    13:00 +33°C° 0 mm 3 mps 674 mmHg 26%
    14:00 +31°C° 0 mm 2 mps 673 mmHg 27%
    15:00 +31°C° 0 mm 2 mps 673 mmHg 28%
    16:00 +30°C° 0.1 mm 2 mps 673 mmHg 30%
    17:00 +30°C° 0.1 mm 2 mps 673 mmHg 33%
    18:00 +29°C° 0.1 mm 1 mps 673 mmHg 35%
    19:00 +27°C° 0 mm 1 mps 673 mmHg 39%
    20:00 +26°C° 0 mm 1 mps 673 mmHg 44%
    21:00 +24°C° 0 mm 1 mps 673 mmHg 48%
    22:00 +24°C° 0.3 mm 1 mps 673 mmHg 50%
    23:00 +24°C° 0.3 mm 1 mps 673 mmHg 52%

    4 June, Sunday

    Time Temperature Precipitation Wind Pressure Humidity
    00:00 +23°C° 0.3 mm 1 mps 673 mmHg 54%
    01:00 +23°C° 0 mm 1 mps 672 mmHg 56%
    02:00 +22°C° 0 mm 1 mps 672 mmHg 57%
    03:00 +22°C° 0 mm 1 mps 672 mmHg 59%
    04:00 +23°C° 0.1 mm 1 mps 672 mmHg 57%
    05:00 +23°C° 0.1 mm 1 mps 672 mmHg 54%
    06:00 +24°C° 0.1 mm 1 mps 673 mmHg 51%
    07:00 +26°C° 0 mm 2 mps 673 mmHg 46%
    08:00 +27°C° 0 mm 2 mps 674 mmHg 41%
    09:00 +29°C° 0 mm 2 mps 674 mmHg 36%
    10:00 +30°C° 0.4 mm 2 mps 674 mmHg 33%
    11:00 +31°C° 0.4 mm 2 mps 674 mmHg 31%
    12:00 +32°C° 0.4 mm 2 mps 674 mmHg 28%
    13:00 +31°C° 0.3 mm 2 mps 674 mmHg 29%
    14:00 +31°C° 0.3 mm 2 mps 673 mmHg 30%
    15:00 +30°C° 0.3 mm 2 mps 673 mmHg 31%
    16:00 +30°C° 0.2 mm 3 mps 673 mmHg 35%
    17:00 +29°C° 0.2 mm 3 mps 672 mmHg 38%
    18:00 +28°C° 0.2 mm 4 mps 672 mmHg 41%
    19:00 +26°C° 0.3 mm 4 mps 672 mmHg 48%
    20:00 +25°C° 0.3 mm 4 mps 672 mmHg 56%
    21:00 +22°C° 0.3 mm 4 mps 672 mmHg 63%
    22:00 +22°C° 0 mm 3 mps 672 mmHg 63%
    23:00 +21°C° 0 mm 3 mps 671 mmHg 64%
    Show more